timestamp,gas_concentrations,,corrected_fluxes_and_quality_flags,,,,,,,,,,storage_terms,,,turbulence,,,footprint,,
ISOdate,CO2_1_1_1,H2O_1_1_1,Tau_1_1_1,QcTau_1_1_1,H_1_1_1,QcH_1_1_1,LE_1_1_1, QcLE_1_1_1,Fc_1_1_1, QcFc_1_1_1,E_1_1_1, QcE_1_1_1,Sa_1_1_1,Sw_1_1_1,Sc_1_1_1,ustar_1_1_1,MO_length_1_1_1,ZL_1_1_1,Fetchmax_1_1_1,Fetch70_1_1_1,Fetch90_1_1_1
yyyymmddHHMM,[µmol+1mol_a-1],[mmol+1mol_a-1],[kg+1m-1s-2],[#],[W+1m-2],[#],[W+1m-2],[#],[µmol+1s-1m-2],[#],[mmol+1s-1m-2],[#],[W+1m-2],[W+1m-2],[µmol+1s-1m-2],[m+1s-1],[m],[#],[m],[m],[m]
201407250030,388.76089792543956,15.019325377995010,7.27861403959334519E-002,0,-35.269057521072327,0,7.8521409134978164,0,11.231966472055429,0,0.17706292084754294,0,-9999.,-9999.,-9999.,0.25336182416825798,38.758708932690652,0.55729410485553332,87.020592245747167,159.10139641963761,238.36288390692977
201407250100,392.15173483834434,14.937775518385637,9.24483272072618156E-002,0,-33.966007462195982,0,15.212304054663553,0,16.281948036901881,0,0.34297136803890049,0,-4.0997798887728854,-2.7706919875991485,2.5973758717396489,0.28544968220072775,57.552674374403956,0.37530836290044606,105.30122781202124,192.52422854446542,288.43637686734610
201407250130,390.93704502971713,14.710523095237445,7.90687900515343184E-002,0,-34.508273309175081,0,21.022434985084072,0,14.346922844770599,0,0.47396168867299304,0,-0.14157203304450952,-7.7182607705282775,-0.93011475251984721,0.26402326303694862,44.811423122547517,0.48201995149606502,102.91304357363580,188.15786608439998,281.89477024675398
201407250200,391.24855317553153,14.634045842311352,9.36294757117467763E-002,0,-41.180747853179007,0,17.309886836254716,0,12.441689669025015,0,0.39025886408988503,0,-8.93821801741923605E-002,-2.5965490381362950,0.23844718770804152,0.28735172123115904,48.396787527158345,0.44631061489110085,101.26785933314265,185.14994458817696,277.38835573035141
201407250230,393.78245358975693,14.756061182357064,5.99429918988910182E-002,0,-36.598624455410693,0,5.2511184105073916,1,8.3584401390695540,0,0.11836559352474721,1,-4.5373061964217882,4.1444530487852500,1.9400637479667637,0.22989787612319468,27.878756381631877,0.77478348403773556,103.32989581523560,188.92000493024798,283.03659311771526
201407250300,397.79292525189868,15.045191096800691,6.12125795151938698E-002,0,-27.727119450435818,0,5.4775778222626661,1,4.9048110848615885,0,0.12345144371256724,1,-3.5324741541291482,9.8245174012343082,3.0712931221519599,0.23230592575607989,37.960456148604599,0.56901318349395025,110.58063436696185,202.17666750725687,302.89748933827724
201407250330,400.98337645069643,15.133745647196267,5.48939368512969539E-002,0,-23.044322885990283,0,5.1362383063876553,0,4.9414727219442636,0,0.11572086049591701,0,-7.5592548289437005,3.0139439634418022,2.4464868511045772,0.21985025175838033,38.718382738007136,0.55787454104576506,107.25550552539272,196.09727148941704,293.78944629255483
201407250400,402.68943943290196,15.109959867512950,0.12278517480212543,0,-41.974975433844769,0,8.6203948790485789,0,11.261646790109191,0,0.19420267407810149,0,-2.0604782269214792,-0.80997587127399273,1.3088135876035285,0.32873035035499454,71.066499055150700,0.30394067932398722,104.06591119695319,190.26567578809397,285.05265327610425
201407250430,403.14622777607900,15.147156754953498,0.15335429035218728,0,-48.625719191686365,0,12.161513809105404,0,22.687398984876456,0,0.27398238812810527,0,0.37324632558494003,1.2665372266285317,0.35039780817623178,0.36739738153304274,85.639276154162530,0.25222072126248496,95.916049900481909,175.36513007319959,262.72892056026188
201407250500,399.97735652685429,15.298687877545772,0.13311232963050271,0,-38.558388661081452,0,3.5181589960757407,1,15.897676174700621,0,7.92511340986041118E-002,1,-2.4117768956636692,5.1612707122708787,-2.4313608280688084,0.34226344809084125,87.308956197309712,0.24739729966747181,98.911445909079887,180.84166930947490,270.93377429231191
201407250530,394.49983023596343,15.750163183595262,0.19139010802708964,0,-22.130505667946540,0,6.7926029796663752,1,7.4973137202957778,0,0.15306606610718446,1,8.1741078583914124,15.353027405459834,-4.1974659735083506,0.41069504794739337,262.84861760420046,8.21765782787012983E-002,95.203607267049762,174.06255771736187,260.77742981145661
201407250600,390.35210066122767,16.158709479354037,0.23213068513649093,0,-27.742125731042933,0,1.8866547455064639,1,11.983324040729141,0,4.25263137843422817E-002,1,6.5580234693043113,13.877320719675634,-3.1757045306784746,0.45252885576413476,280.55597620945889,7.69899835741647692E-002,105.11830854137345,192.18979377861208,287.93533264610443
201407250630,384.30213705562488,16.519975186048605,0.27117098166281106,0,-6.3196078695514046,2,14.055417415166152,1,4.7697198010610515,0,0.31691209638857537,1,6.9276551459937350,12.248348614238209,-4.6248604357484249,0.48952327788550448,1558.5641685567716,1.38589096527232322E-002,109.77018758684015,200.69491231445122,300.67755004830610
201407250700,381.06952380430852,17.196065766097263,0.49623160012029854,0,40.738057526658224,1,153.07220053239089,1,-12.959298895058449,1,3.4535183979759219,1,14.399382237568119,22.859027626251915,-2.4658807189962602,0.66300010406848442,-600.78814310023665,-3.59527734494524062E-002,111.58362751076108,204.01045886237810,305.64484294878486
201407250730,281.88537819336943,17.562140134774872,0.51333923364161327,0,29.733762359590379,1,-259.94737111217989,2,47.843030707648943,2,-5.8626728134194597,2,-8.2748483318643835,12.395129568478572,-75.741557820106209,0.67401109240306101,-864.76648930807232,-2.49778411479414063E-002,96.332616263172270,176.12674624122474,263.86996036460027
201407250800,289.99771426084885,17.766445599562459,0.56189100875348963,0,66.598923129634471,0,279.05089287790787,1,-47.398275868092909,1,6.2971393997306828,1,13.273664375401113,6.8954812613424457,6.1786048918146665,0.70612483753501620,-443.77580895161174,-4.86732254537002376E-002,108.81369799333629,198.94614428081658,298.05757686666311
201407250830,373.65960155679909,17.427913350384941,0.67006167484541657,0,60.266336712316516,0,58.759848145075416,1,-43.327208314874959,1,1.3262452916664600,1,4.4206172452770511,-11.407660765353848,63.630802283420770,0.77159113098975785,-639.48355542244440,-3.37772563764067238E-002,113.12478974571772,206.82819495636332,309.86632507631737
201407250900,377.58718671732703,17.439590783548180,0.43112569315216798,0,8.9201586717523771,0,62.293262861397899,1,-10.835028996811930,1,1.4052831764866054,1,-11.717591515406466,0.39431240335156342,2.9918610937470818,0.61843593759256510,-2224.1853975436607,-9.71142065038937269E-003,109.88528654207390,200.90534991354750,300.99282391850357
201407250930,381.60198950920619,17.420150854256928,0.53119953710171053,0,9.5983713723317869,0,-17.398669424100984,2,2.9284716809251652,1,-0.39237649114740258,2,-7.2321974062405081,-0.65744233182257039,3.0620631525405217,0.68604554413611907,-2821.9595513982813,-7.65425570656999652E-003,117.42640906778934,214.69292700822700,321.64912683182797
201407251000,372.03515998408761,17.537739863659802,0.40946003084898452,0,27.135645322895826,0,70.380319127092733,0,-8.2177836857221980,0,1.5875586873715808,0,4.8737909468048386,3.9720760239643118,-7.2894945003179759,0.60262876121366815,-676.46236562755234,-3.19308229068467689E-002,102.61958463264544,187.62132954634077,281.09094074298321
201407251030,368.95247038689274,17.551094324046797,0.61518596798404590,0,131.93452416039707,0,108.40454316351418,0,-19.477995435160295,0,2.4467717908307853,0,14.187548750659060,0.44976672004164936,-2.3433477981034185,0.73953651708999635,-257.10662683472196,-8.40118369017587158E-002,110.13192471264765,201.35628315056627,301.66840407835201
201407251100,365.68111524811900,17.709544079492179,0.60114737174289334,0,77.595222816322760,0,91.621113894012808,0,-14.025819920855575,0,2.0695877553709288,0,18.100805631307978,5.3184305722713532,-2.4803210185841533,0.73202070358084270,-424.04619636701187,-5.09378463597989842E-002,110.64171861698358,202.28834899811895,303.06480856262078
201407251130,363.43346179661654,17.879479703823396,0.47549128300152310,0,69.805448844320054,0,88.678927404389810,0,-14.449564881122830,0,2.0039638356847451,0,9.5600802606325512,5.6927569035065337,-1.7015197991298996,0.65156010980119361,-332.39025852300375,-6.49838539070937554E-002,97.793345568954862,178.79742528791277,267.87112423797902
201407251200,363.22089643573219,17.995604288728305,0.77894779053946261,0,146.12687525146094,0,155.42508340658588,0,-27.684510771227728,0,3.5148435861541518,0,16.586377601827664,3.8755204151551612,-0.16042913540388620,0.83522875264177321,-334.37485112830490,-6.45981596017570769E-002,117.89613023546887,215.55172711262793,322.93576588208902
201407251230,365.83718777937429,17.790805914817316,0.43021211047103691,0,99.315596192933668,0,129.03467069409410,0,-20.611472519402398,0,2.9184754926121124,0,3.4010428295567459,-6.8311371672178121,1.9737958845807335,0.62081607498394109,-202.04278545326568,-0.10690804896369971,103.23369145631091,188.74411267932709,282.77307447407117
201407251300,365.19715052433679,18.032545831828013,0.44126748857393111,0,94.770935855515603,0,120.12780142845909,0,-18.637895480833421,0,2.7174227741091301,0,3.3629415162403427,8.0584912918809213,-0.48264110688603562,0.62891380552403053,-220.14604233767176,-9.81166854994775101E-002,101.67624212347552,185.89659857591607,278.50697946215507
201407251330,365.64349596952820,18.243789851333769,0.57590457538655204,0,147.81295132016297,0,150.15989682802712,0,-22.390947082357179,0,3.3966986170492905,0,-0.55803355964910439,7.0416981533573706,0.33656359874324360,0.71852916633305430,-210.47767600525628,-0.10262371007679019,111.31830339695314,203.52536176155127,304.91807909548089
201407251400,368.52778349690340,17.969002176839918,0.45791723012121938,0,112.27878574481763,0,133.36291418281095,0,-22.841223832756050,0,3.0165756151138039,0,-1.2558242774500672,-9.1626622802265967,2.1754150156110823,0.64059883446724664,-196.35455870321542,-0.11000508540597631,112.43167738459316,205.56096450337799,307.96778293812287
201407251430,365.51071414344392,18.422009235678843,0.31737026043600380,0,71.684995599501946,0,109.69352137106054,0,-22.297085965969497,0,2.4813311685174937,0,1.2921866078981592,15.099043980128110,-2.2747492299491188,0.53344652218447453,-177.58693140469029,-0.12163057173828457,104.46410066583438,190.99369313322632,286.14335592124201
201407251500,364.29847584422924,18.801727555959019,0.34192859918449298,0,92.430411111499822,0,122.57821595900116,0,-20.454182951666748,0,2.7728395544815587,0,0.40367063754852628,12.650887661767356,-0.91360589572456652,0.55385433259702532,-154.12050305994683,-0.14015007459194737,107.02003514753790,195.66675653927322,293.14445644714414
201407251530,364.85375664158499,18.915987825652795,0.29033786185284033,0,39.903135662467108,0,71.168959374314738,0,-11.335690024491452,0,1.6101087426815355,0,2.7878212816003769,3.8045959344203699,0.41830257902270879,0.51048811205440681,-279.54041905856423,-7.72696845513233671E-002,108.07357598274989,197.59296519565632,296.03026801557917
201407251600,363.90878863750584,19.217265884869988,0.13638088833957321,1,0.20931244941988461,0,50.772548395537697,0,-4.8683325303981313,0,1.1483307354817305,0,-6.6476483254742043,10.046733105825274,-0.71270940673992389,0.34968477262412473,-17131.706398781709,-1.26082011314039609E-003,110.89655485744849,202.75427092153907,303.76284450599468
201407251630,364.57863998283415,19.398006119165576,0.10215261454575994,0,-3.6970129388174087,0,13.540796284718015,0,1.2449043071655477,0,0.30618768241186378,0,-4.9696242529286883,6.0332601334694580,0.50561407511638712,0.30252898434333120,628.10956223862820,3.43889048958529314E-002,89.616530753219223,163.84759994341908,245.47356165707265
201407251700,365.31768560174737,19.490183681972287,0.16914941200353642,0,-1.6764793769135056,2,18.647620945869065,0,2.6082555340784497,0,0.42159288701741326,0,-3.8763966150036957,3.0791522299699441,0.55814498715669192,0.38919529975531408,2949.0165255076095,7.32447574069868164E-003,114.10042660473091,208.61197029805612,312.53874558459819
201407251730,365.95549290237011,19.556542701192882,0.29541367877657648,0,1.6725092026890223,1,45.735356246524375,0,2.5051653863974339,1,1.0338645056964373,0,-3.0687081571201205,2.2180029649635631,0.48190697153516199,0.51422615176741115,-6818.1177967108015,-3.16802974721561419E-003,110.05381919390025,201.21348135181850,301.45446096193308
201407251800,366.33753663648110,19.644090789121194,0.18412255102008385,0,-4.9109816239300192,2,95.876308640651530,1,6.3580733417862954,0,2.1663082901300066,1,-10.687203711007150,2.9321425240450192,0.28910822620522009,0.40566054577747346,1139.8852947653863,1.89492750710901665E-002,92.489222306979272,169.09979630167197,253.34230887722029
201407251830,367.33494417427113,19.705157386444068,0.34309522280876492,0,0.85972697400287601,1,-40.757470876742182,2,12.911523409508138,0,-0.92054870001595213,2,-8.9520056638457994,2.0486767121638194,0.75575651106589081,0.55340200011611362,-16530.100477004478,-1.30670712074910933E-003,103.83459025162190,189.84274732399683,284.41902936923026
201407251900,368.49532675707201,19.747843751842858,0.26809904776754834,0,1.7031268211733215,0,15.138050535704453,0,5.7997409248467493,0,0.34180080977491140,0,-7.2175661383100822,1.4339405095180446,0.88012892549004218,0.48895245971635237,-5754.8233355344382,-3.75337325589579626E-003,112.52131872660637,205.72485746621783,308.21332446166497
201407251930,370.01520895826172,19.641422055792376,0.24878621855417588,0,0.69634459068361554,1,5.0228966179563033,0,7.0458455505669209,0,0.11341558358615977,0,0.81232485541386201,-3.5735977365095315,1.1524017517954366,0.47108460450797418,-12585.623587251692,-1.71624392309644531E-003,106.34566259649321,194.43378843586981,291.29724555204086
201407252000,371.93327193275525,19.607778566995091,0.28202755054362755,0,-2.4278274976689906,0,-14.068125700389961,1,8.7493371882314221,0,-0.31765429544563661,1,0.0000000000000000,-1.1296706726467991,1.4542269307607032,0.50158098756283198,4356.9978966761664,4.95754198469502277E-003,94.706961497365654,173.15453085333522,259.41704010498614
201407252030,374.75373654840951,19.624835316149110,0.33312878288291492,0,-5.7301912073550856,0,-25.709443336050420,0,8.6209409904706469,0,-0.58051195185057491,0,0.0000000000000000,0.57262916863448377,2.1380425880504901,0.54517960539416477,2370.1749652142526,9.11325126499573125E-003,98.271697461972366,179.67200511086014,269.18140418206389
201407252100,375.33341121545732,19.623201266748676,0.27448890228581169,0,-6.2167778651383099,0,1.3115254247795252,0,8.1931578076859246,0,2.96128923474831968E-002,0,-0.76045738154513531,-5.48601977012707909E-002,0.43942081109558256,0.49487496032488665,1633.8615641705792,1.32202142908999284E-002,96.935643343903564,177.22927207042463,265.52174496325210
201407252130,376.24136863488650,19.582054455332678,0.30229333305244011,0,-8.1825219058822238,0,0.50926434589080583,0,9.5100976692776165,0,1.14979359807289416E-002,0,-1.4547062771682322,-1.3817549032758396,0.68839375919294121,0.51928573710361581,1434.1881761435761,1.50607851600623090E-002,97.748782162518452,178.71594916817750,267.74905816372268
201407252200,377.27565809115328,19.660900515251001,0.31927213665170273,0,-5.9029983484746520,0,-1.5093190013323787,1,7.3816771853191812,0,-3.40766767958459796E-002,1,-2.21545032867695446E-002,2.6478951122202474,0.78422209703762102,0.53366211598781566,2157.8631504796822,1.00099026183372332E-002,97.718382912326462,178.66036964348297,267.66578990781483
201407252230,378.22486200637945,19.647354034929396,0.36520865608938002,0,-3.6836794131911899,0,-1.6291644333354822,0,7.9569478801278120,0,-3.67794038424952008E-002,0,-1.9284045892403099,-0.45520000680980821,0.72007059361449355,0.57061868263658910,4227.8075740856875,5.10903100992510326E-003,102.12327334173105,186.71391421618171,279.73146722568237
201407252300,378.50353682290626,19.654524321182080,0.49937596730549749,0,-8.7734899307495287,0,-3.5460726802453268,2,9.5303259556811000,0,-8.00538776533398916E-002,2,-0.26599654258768746,0.24095319114103381,0.21141152199687721,0.66724016404082787,2838.1274251863088,7.61065194195150330E-003,103.14112348550535,188.57486890565445,282.51951646085615
201407252330,378.85991695357791,19.621860457799393,0.50896032231614552,0,-5.4967914886539537,0,-0.43183052491422808,2,7.2616475154760076,0,-9.74873081452733506E-003,2,0.0000000000000000,-1.0973929449447690,0.27029800268826348,0.67368737760533159,4661.7459354106213,4.63345714229649545E-003,97.839981123470906,178.88268995521534,267.99886624685490
201407260000,379.89393717343160,19.633480420730969,0.54643448942925998,0,-10.451473874288240,0,-0.96000935549343658,1,10.800093446726615,0,-2.16725595949760381E-002,1,0.0000000000000000,0.39042071362283709,0.78431745453868540,0.69802296671131170,2727.3386078080025,7.91980868754694166E-003,113.18693471029513,206.94181577173072,310.03654976216103
